VANGUARD DEB, 1576

Orbit data source: Space-Track

VANGUARD DEB, 1576 is space debris in LEO originally from a launch on Mon, 17 Mar 1958 UTC launched from the Air Force Eastern Test Range (AFETR). Debris objects in space refer to the collection of defunct objects orbiting the Earth. Examples of debris include non-operational satellites, rocket bodies, and fragments generated from explosions, collisions, or faulty payload assembly.

Loading next visibility...
Identifier
1576, 1958-002C
Orbit
LEO
Country
Flag of USUS
Related business
Manufacturer
NRL
Mission
Spacecraft
Bus & Motor
Unknown
Mass
Unknown
Launch date (UTC)
1958-03-17 (68 years ago)
Launch vehicle
Unknown
Launch site
Air Force Eastern Test Range (AFETR)
Object type
Payload
Rocket body
Debris
Shape & HBR
Unknown shape, 0.1 m
Radar Cross Section
Small (<0.1 m²)

Expand to show TLE details & history
Last TLE update: 1 day ago

TLE from 1 day ago
0 VANGUARD DEB
1 01576U 58002C   26140.47158199  .00002018  00000-0  18465-2 0  9998
2 01576  34.2257 211.2351 1379841 231.0389 115.9117 11.82861256798827
Epoch: 2026-05-20T11:19Z
TLE epoch observation values (Epoch: 2026-05-20T11:19:04.683Z)
Latitude
0.00001°
Longitude
163.33495°
Altitude
2,361.792 km
Speed
6.5 km/s
True Right ascension
14h 04m 56s
True Declination
0° 00' 00"
Sunlit
Object was in full shadow at epoch
Visualization orbit readout
Latitude
Unknown
Longitude
Unknown
Altitude
Unknown
Speed
Unknown
Apparent Right ascension
Unknown
Apparent Declination
Unknown
Sunlit
N/A
Visualization observer readout
Local Sidereal Time
20:27:20
Azimuth
Unknown
Elevation
Unknown
Doppler factor
Unknown
Orbital elements
Apogee altitude
2,884.586 km
Perigee altitude
638.319 km
Semi-major axis
8,139.589 km
Eccentricity
0.13798
Inclination
34.2257°
RAAN
211.2351°
Arg. of periapsis
231.0389°
True anomaly
129.02061°
Mean anomaly
115.9117°
Eccentric anomaly
122.57398°
Mean motion
2.95556 °/min
Orbital period
121.8 mins
BSTAR
0.0018465
Loading maneuver chart data...
Computing Atmospheric mass density...
Loading historical data...
Loading historical data...
Loading historical data...
Loading historical data...
Loading historical data...
Loading historical data...
Loading historical data...
Other satellites on launch #2 in the year 1958 (1958-03-17 UTC)

Documentation

Showing up to 5 results
|